Location: Willingham
(52.3167°N, 0.0667°E)
Time: 11:51:00
(UTC+00:00)

CENTAUR R/B - Pass Details

Date: 19 May 2025
Orbit: 645 x 1536 km, 63.4° (Epoch: 11 June)

Event Time Altitude Azimuth Distance (km) Brightness Sun altitude
Rises 23:11:20 0° 312° (NW) 4,026 6.6 -17.0°
Reaches altitude 10° 23:13:53 10° 314° (NW) 3,177 6.0 -17.1°
Maximum altitude 23:21:50 79° 42° (NE) 1,420 3.3 -17.3°
Drops below altitude 10° 23:31:06 10° 129° (SE) 3,673 5.1 -17.5°
Enters shadow 23:31:28 - 129° (SE) 3,788 5.1 -17.5°
